N4NVD-13 Weather Reports


Display with metric or nautical units.
time (UTC)temp
F
wind
direction
speed
MPH
gust
MPH
rain 1hr
in
rain 24hr
in
rain mn
in
humidity
%
barometer
mb
20260903211430 85 251 0.0 6.0 0.00 0.00 0.00 79 1012.0
20260903210926 85 92 6.0 7.0 0.00 0.00 0.00 80 1011.9
20260903210425 85 155 4.0 9.0 0.00 0.00 0.00 80 1012.2
20260903205921 86 132 4.0 10.0 0.00 0.00 0.00 83 1012.1
20260903205420 86 84 2.0 8.0 0.00 0.00 0.00 83 1012.1
20260903204915 86 125 2.0 7.0 0.00 0.00 0.00 83 1012.0
20260903204411 86 118 3.0 7.0 0.00 0.00 0.00 84 1012.0
20260903203907 86 116 3.0 5.0 0.00 0.00 0.00 86 1011.9
20260903203402 87 154 2.0 9.0 0.00 0.00 0.00 86 1011.9
20260903202901 87 103 5.0 11.0 0.00 0.00 0.00 85 1011.9
20260903202358 87 36 2.0 9.0 0.00 0.00 0.00 85 1012.0
20260903201858 87 126 7.0 8.0 0.00 0.00 0.00 85 1012.4
20260903201353 86 72 5.0 9.0 0.00 0.00 0.00 86 1012.2
20260903200851 86 84 2.0 7.0 0.00 0.00 0.00 86 1012.4
20260903200347 86 106 4.0 11.0 0.00 0.00 0.00 87 1012.6
20260903195842 85 124 6.0 12.0 0.00 0.00 0.00 89 1012.6
20260903195338 85 70 3.0 10.0 0.00 0.00 0.00 90 1012.5
20260903194832 84 41 7.0 11.0 0.00 0.00 0.00 90 1012.7
20260903194328 85 98 4.0 9.0 0.00 0.00 0.00 91 1012.6
20260903193824 85 52 6.0 7.0 0.00 0.00 0.00 92 1012.6
20260903193320 84 28 6.0 9.0 0.00 0.00 0.00 92 1012.7
20260903192815 84 69 5.0 10.0 0.00 0.00 0.00 93 1013.0
20260903192311 84 334 1.0 4.0 0.00 0.00 0.00 93 1012.9
20260903191807 84 34 2.0 5.0 0.00 0.00 0.00 94 1012.7
20260903191302 84 45 3.0 5.0 0.00 0.00 0.00 95 1012.7
20260903190802 84 100 8.0 8.0 0.00 0.00 0.00 95 1012.6
20260903190257 83 61 3.0 9.0 0.00 0.00 0.00 96 1013.2
20260903185751 83 73 5.0 9.0 0.00 0.00 0.00 97 1013.0
20260903185251 83 357 3.0 5.0 0.00 0.00 0.00 97 1013.2
20260903184748 82 58 4.0 6.0 0.00 0.00 0.00 97 1013.1
20260903184243 82 9 2.0 6.0 0.00 0.00 0.00 98 1013.1
20260903183738 82 77 2.0 6.0 0.00 0.00 0.00 97 1013.3
20260903183232 82 48 5.0 7.0 0.00 0.00 0.00 97 1013.2
20260903182731 82 327 2.0 4.0 0.00 0.00 0.00 97 1013.1
20260903182227 82 12 2.0 7.0 0.00 0.00 0.00 96 1013.2
20260903181726 82 0 0.0 8.0 0.00 0.00 0.00 96 1013.3
20260903181220 82 12 6.0 6.0 0.00 0.00 0.00 96 1013.3
20260903180716 83 66 3.0 7.0 0.00 0.00 0.00 95 1013.5
20260903180210 83 59 4.0 7.0 0.00 0.00 0.00 95 1013.7
20260903175709 84 9 5.0 6.0 0.00 0.00 0.00 94 1013.8
20260903175208 84 63 3.0 6.0 0.00 0.00 0.00 93 1013.8
20260903174703 84 0 2.0 3.0 0.00 0.00 0.00 92 1013.8
20260903174157 84 53 4.0 4.0 0.00 0.00 0.00 90 1013.9
20260903173653 85 9 4.0 7.0 0.00 0.00 0.00 89 1014.3
20260903173149 86 37 2.0 4.0 0.00 0.00 0.00 88 1014.2
20260903172643 86 85 2.0 4.0 0.00 0.00 0.00 88 1014.3
20260903172139 86 42 3.0 3.0 0.00 0.00 0.00 86 1014.2
20260903171638 86 0 0.0 3.0 0.00 0.00 0.00 86 1014.4
20260903171135 86 7 0.0 3.0 0.00 0.00 0.00 86 1014.5
20260903170633 86 90 0.0 3.0 0.00 0.00 0.00 86 1014.4
20260903170129 87 90 0.0 3.0 0.00 0.00 0.00 85 1014.4
20260903165627 87 19 2.0 3.0 0.00 0.00 0.00 84 1014.4
20260903165122 87 74 0.0 2.0 0.00 0.00 0.00 84 1014.3
20260903164617 87 159 0.0 3.0 0.00 0.00 0.00 84 1014.2
20260903164112 87 155 3.0 4.0 0.00 0.00 0.00 84 1014.2
20260903163607 87 90 0.0 2.0 0.00 0.00 0.00 84 1014.3
20260903163103 87 148 3.0 3.0 0.00 0.00 0.00 84 1014.3
20260903162559 87 180 0.0 5.0 0.00 0.00 0.00 85 1014.3
20260903162055 87 172 1.0 3.0 0.00 0.00 0.00 83 1014.2
20260903161550 87 163 0.0 5.0 0.00 0.00 0.00 84 1014.4
20260903161046 87 172 0.0 3.0 0.00 0.00 0.00 85 1014.3
20260903160544 86 106 0.0 4.0 0.00 0.00 0.00 85 1014.3
20260903160039 86 205 4.0 6.0 0.00 0.00 0.00 86 1014.2
20260903155532 86 165 4.0 5.0 0.00 0.00 0.00 86 1014.1
20260903155028 86 233 0.0 6.0 0.00 0.00 0.00 87 1014.2
20260903154524 86 166 5.0 8.0 0.00 0.00 0.00 88 1013.8
20260903154020 85 208 2.0 4.0 0.00 0.00 0.00 89 1014.0
20260903153515 85 176 2.0 6.0 0.00 0.00 0.00 89 1013.9
20260903153011 85 225 2.0 7.0 0.00 0.00 0.00 90 1014.1
20260903152506 85 214 3.0 6.0 0.00 0.00 0.00 90 1013.9
20260903152003 85 240 2.0 5.0 0.00 0.00 0.00 90 1013.9
20260903151456 84 220 3.0 6.0 0.00 0.00 0.00 91 1013.8
20260903150952 84 212 5.0 5.0 0.00 0.00 0.00 92 1013.9
20260903150451 84 212 3.0 7.0 0.00 0.00 0.00 92 1013.9
20260903145946 84 214 3.0 6.0 0.00 0.00 0.00 93 1014.0
20260903145441 83 209 3.0 7.0 0.00 0.00 0.00 93 1013.7
20260903144936 83 226 4.0 5.0 0.00 0.00 0.00 94 1013.5
20260903144435 83 168 2.0 4.0 0.00 0.00 0.00 95 1013.7
20260903143932 83 233 8.0 12.0 0.00 0.00 0.00 94 1013.6
20260903143428 82 212 5.0 8.0 0.00 0.00 0.00 95 1013.5
20260903142923 82 220 4.0 6.0 0.00 0.00 0.00 96 1013.7
20260903142419 82 229 2.0 6.0 0.00 0.00 0.00 97 1013.7
20260903141915 82 180 1.0 3.0 0.00 0.00 0.00 97 1013.7
20260903141410 82 210 3.0 5.0 0.00 0.00 0.00 98 1013.5
20260903140906 82 180 0.0 4.0 0.00 0.00 0.00 98 1013.7
20260903140401 82 184 2.0 3.0 0.00 0.00 0.00 98 1013.8
20260903135856 81 159 0.0 3.0 0.00 0.00 0.00 99 1013.7
20260903135351 81 142 4.0 4.0 0.00 0.00 0.00 99 1013.8
20260903134850 81 184 2.0 3.0 0.00 0.00 0.00 99 1013.7
20260903134340 80 154 3.0 5.0 0.00 0.00 0.00 99 1013.5
20260903133837 80 243 2.0 5.0 0.00 0.00 0.00 99 1013.3
20260903133334 80 158 2.0 5.0 0.00 0.00 0.00 99 1013.3
20260903132828 80 228 2.0 4.0 0.00 0.00 0.00 99 1013.3
20260903132324 80 194 1.0 8.0 0.00 0.00 0.00 99 1013.3
20260903131819 80 166 0.0 4.0 0.00 0.00 0.00 99 1013.2
20260903131319 79 154 0.0 3.0 0.00 0.00 0.00 99 1013.3
20260903130813 79 215 0.0 4.0 0.00 0.00 0.00 99 1013.3
20260903130313 79 198 2.0 5.0 0.00 0.00 0.00 99 1013.2
20260903125811 79 154 3.0 4.0 0.00 0.00 0.00 99 1013.4
20260903125307 79 147 3.0 3.0 0.00 0.00 0.00 99 1013.3
20260903124806 79 240 0.0 2.0 0.00 0.00 0.00 99 1013.3
20260903124302 79 165 0.0 2.0 0.00 0.00 0.00 99 1013.2
20260903123800 78 165 1.0 3.0 0.00 0.00 0.00 99 1013.1
20260903123300 78 126 1.0 2.0 0.00 0.00 0.00 99 1013.2
20260903122758 78 120 0.0 2.0 0.00 0.00 0.00 99 1013.2
20260903122253 78 157 0.0 2.0 0.00 0.00 0.00 99 1013.1
20260903121751 78 151 0.0 2.0 0.00 0.00 0.00 99 1012.9
20260903121247 78 236 0.0 3.0 0.00 0.00 0.00 99 1012.5
20260903120743 78 230 3.0 4.0 0.00 0.00 0.00 99 1012.6
20260903120236 78 237 3.0 4.0 0.00 0.00 0.00 99 1012.6
20260903115735 78 246 0.0 3.0 0.00 0.00 0.00 99 1012.6
20260903115230 78 206 0.0 2.0 0.00 0.00 0.00 99 1012.7
20260903114725 78 111 0.0 1.0 0.00 0.00 0.00 99 1013.0
20260903114220 78 83 0.0 3.0 0.00 0.00 0.00 99 1013.1
20260903113715 78 99 0.0 2.0 0.00 0.00 0.00 99 1012.9
20260903113211 78 74 0.0 0.0 0.00 0.00 0.00 99 1012.9
20260903112707 77 81 0.0 0.0 0.00 0.00 0.00 99 1012.7
20260903112203 78 114 0.0 2.0 0.00 0.00 0.00 99 1012.5
20260903111701 77 160 0.0 0.0 0.00 0.00 0.00 99 1012.4
20260903111156 77 262 0.0 0.0 0.00 0.00 0.00 99 1012.9
20260903110653 77 262 0.0 1.0 0.00 0.00 0.00 99 1012.5
20260903110148 77 154 0.0 2.0 0.00 0.00 0.00 99 1012.6
20260903105642 77 126 0.0 1.0 0.00 0.00 0.00 99 1012.5
20260903105138 77 262 0.0 2.0 0.00 0.00 0.00 99 1012.5
20260903104637 77 90 0.0 0.0 0.00 0.00 0.00 99 1012.5
20260903104133 77 90 0.0 1.0 0.00 0.00 0.00 99 1012.6
20260903103628 77 147 0.0 0.0 0.00 0.00 0.00 99 1012.6
20260903103124 77 157 0.0 1.0 0.00 0.00 0.00 99 1012.5
20260903102620 77 225 0.0 2.0 0.00 0.00 0.00 99 1012.7
20260903102118 77 160 0.0 0.0 0.00 0.00 0.00 99 1012.6
20260903101613 77 255 0.0 2.0 0.00 0.00 0.00 99 1012.4
20260903101108 77 239 0.0 2.0 0.00 0.00 0.00 99 1012.4
20260903100603 76 8 0.0 0.0 0.00 0.00 0.00 99 1012.5
20260903095600 75 0 0.0 0.0 0.00 0.00 0.00 99 1012.6
20260903095055 75 0 0.0 0.0 0.00 0.00 0.00 99 1012.6
20260903094555 76 0 0.0 0.0 0.00 0.00 0.00 99 1012.5
20260903094050 76 0 0.0 0.0 0.00 0.00 0.00 99 1012.9
20260903093550 76 0 0.0 0.0 0.00 0.00 0.00 99 1012.9
20260903093046 76 0 0.0 0.0 0.00 0.00 0.00 99 1012.9
20260903092545 76 0 0.0 0.0 0.00 0.00 0.00 99 1013.1
20260903092040 76 8 0.0 0.0 0.00 0.00 0.00 99 1013.1
20260903091538 76 0 0.0 2.0 0.00 0.00 0.00 99 1012.9
20260903091032 76 32 0.0 2.0 0.00 0.00 0.00 99 1012.7
20260903090529 76 8 0.0 1.0 0.00 0.00 0.00 99 1012.7
20260903090027 76 14 0.0 2.0 0.00 0.00 0.00 99 1012.7
20260903085526 75 114 0.0 0.0 0.00 0.00 0.00 99 1012.9
20260903085022 76 114 0.0 0.0 0.00 0.00 0.00 99 1012.6
20260903084520 76 114 0.0 0.0 0.00 0.00 0.00 99 1012.5
20260903084015 75 74 0.0 0.0 0.00 0.00 0.00 99 1012.7
20260903083511 75 35 0.0 0.0 0.00 0.00 0.00 99 1012.6
20260903083011 75 35 0.0 1.0 0.00 0.00 0.00 99 1012.3
20260903082505 75 180 0.0 0.0 0.00 0.00 0.00 99 1012.7
20260903082000 75 300 0.0 0.0 0.00 0.00 0.00 99 1012.9
20260903081455 75 300 0.0 0.0 0.00 0.00 0.00 99 1012.6
20260903080952 75 300 0.0 0.0 0.00 0.00 0.00 99 1012.7
20260903080447 75 300 0.0 1.0 0.00 0.00 0.00 99 1012.7
20260903075944 75 262 0.0 2.0 0.00 0.00 0.00 99 1012.5
20260903075438 75 262 1.0 1.0 0.00 0.00 0.00 99 1012.5
20260903074933 76 220 2.0 2.0 0.00 0.00 0.00 99 1012.4
20260903074432 76 261 0.0 1.0 0.00 0.00 0.00 99 1012.6
20260903073928 76 0 0.0 0.0 0.00 0.00 0.00 99 1012.7
20260903073423 76 270 0.0 1.0 0.00 0.00 0.00 99 1012.5
20260903072919 76 263 1.0 2.0 0.00 0.00 0.00 99 1012.2
20260903072415 76 270 0.0 1.0 0.00 0.00 0.00 99 1012.5
20260903071911 77 270 0.0 2.0 0.00 0.00 0.00 99 1012.5
20260903071407 77 254 0.0 1.0 0.00 0.00 0.00 99 1012.6
20260903070903 77 99 0.0 1.0 0.00 0.00 0.00 99 1012.5
20260903070357 77 114 0.0 2.0 0.00 0.00 0.00 99 1012.6
20260903065852 77 66 0.0 0.0 0.00 0.00 0.00 99 1012.9
20260903065351 76 206 0.0 0.0 0.00 0.00 0.00 99 1012.5
20260903064850 76 254 1.0 2.0 0.00 0.00 0.00 99 1012.7
20260903064346 76 239 2.0 5.0 0.00 0.00 0.00 99 1012.5
20260903063842 76 215 1.0 3.0 0.00 0.00 0.00 99 1012.6
20260903063337 76 204 2.0 3.0 0.00 0.00 0.00 99 1012.4
20260903062833 76 246 0.0 3.0 0.00 0.00 0.00 99 1012.5
20260903062332 76 203 0.0 3.0 0.00 0.00 0.00 99 1013.0
20260903061829 76 203 0.0 2.0 0.00 0.00 0.00 99 1013.1
20260903061327 76 243 1.0 2.0 0.00 0.00 0.00 99 1013.3
20260903060824 76 254 1.0 1.0 0.00 0.00 0.00 98 1013.0
20260903060317 76 246 0.0 2.0 0.00 0.00 0.00 98 1013.1
20260903055816 76 248 0.0 3.0 0.00 0.00 0.00 98 1013.0
20260903055314 76 262 2.0 2.0 0.00 0.00 0.00 98 1013.1
20260903054809 76 270 1.0 2.0 0.00 0.00 0.00 97 1012.9
20260903054309 76 265 2.0 2.0 0.00 0.00 0.00 97 1013.0
20260903053806 76 261 0.0 1.0 0.00 0.00 0.00 97 1013.1
20260903053301 77 249 0.0 0.0 0.00 0.00 0.00 96 1012.7
20260903052756 77 206 0.0 2.0 0.00 0.00 0.00 96 1013.0
20260903052252 77 243 2.0 3.0 0.00 0.00 0.00 95 1012.9
20260903051747 77 199 2.0 3.0 0.00 0.00 0.00 94 1012.9
20260903051242 77 203 0.0 3.0 0.00 0.00 0.00 94 1012.7
20260903050738 77 210 0.0 3.0 0.00 0.00 0.00 94 1012.7
20260903050237 77 124 0.0 4.0 0.00 0.00 0.00 93 1012.9
20260903045732 77 162 1.0 3.0 0.00 0.00 0.00 93 1012.9
20260903045228 77 157 4.0 7.0 0.00 0.00 0.00 93 1012.9
20260903044724 77 155 4.0 5.0 0.00 0.00 0.00 94 1013.1
20260903044219 77 162 0.0 8.0 0.00 0.00 0.00 94 1013.1
20260903043716 77 241 2.0 5.0 0.00 0.00 0.00 95 1013.2
20260903043215 77 169 2.0 4.0 0.00 0.00 0.00 96 1013.0
20260903042714 76 165 0.0 5.0 0.00 0.00 0.00 96 1013.3
20260903042209 76 214 2.0 5.0 0.00 0.00 0.00 96 1013.3
20260903041706 75 240 0.0 3.0 0.00 0.00 0.00 99 1013.1
20260903041202 75 215 3.0 5.0 0.00 0.00 0.00 99 1013.1
20260903040701 74 225 3.0 7.0 0.00 0.00 0.00 99 1012.9
20260903040156 74 99 0.0 6.0 0.00 0.00 0.00 99 1013.1
20260903035652 75 112 0.0 5.0 0.00 0.00 0.00 99 1013.3
20260903035148 75 221 2.0 3.0 0.00 0.00 0.00 99 1013.2
20260903034648 75 141 4.0 4.0 0.00 0.00 0.00 99 1013.2
20260903034143 75 90 2.0 11.0 0.00 0.00 0.00 99 1013.3
20260903033638 75 105 0.0 5.0 0.00 0.00 0.00 99 1013.2
20260903033138 75 150 2.0 4.0 0.00 0.00 0.00 99 1013.3
20260903032633 76 156 2.0 3.0 0.00 0.00 0.00 99 1013.1
20260903032129 76 138 3.0 5.0 0.00 0.00 0.00 99 1013.1
20260903031624 77 155 0.0 4.0 0.00 0.00 0.00 99 1013.3
20260903031119 77 155 3.0 3.0 0.00 0.00 0.00 99 1013.4
20260903030615 77 154 0.0 3.0 0.00 0.00 0.00 99 1013.3
20260903030110 77 105 2.0 5.0 0.00 0.00 0.00 99 1013.3
20260903025605 77 90 2.0 3.0 0.00 0.00 0.00 99 1013.1
20260903025101 78 129 2.0 5.0 0.00 0.00 0.00 99 1013.2
20260903024555 78 194 1.0 5.0 0.00 0.00 0.00 99 1013.0
20260903024049 77 246 0.0 3.0 0.00 0.00 0.00 99 1012.7
20260903023545 77 135 0.0 5.0 0.00 0.00 0.00 99 1012.4
20260903023040 77 228 0.0 3.0 0.00 0.00 0.00 99 1012.4
20260903022539 77 176 2.0 3.0 0.00 0.00 0.00 99 1012.5
20260903022038 77 213 2.0 5.0 0.00 0.00 0.00 99 1012.4
20260903021533 77 98 1.0 3.0 0.00 0.00 0.00 99 1012.2
20260903021028 77 62 5.0 5.0 0.00 0.00 0.00 99 1011.8
20260903020524 77 45 2.0 4.0 0.00 0.00 0.00 99 1012.1
20260903020023 77 98 2.0 6.0 0.00 0.00 0.00 99 1012.2
20260903015519 77 68 3.0 5.0 0.00 0.00 0.00 99 1012.4
20260903015014 78 57 2.0 4.0 0.00 0.00 0.00 98 1012.4
20260903014508 78 31 6.0 9.0 0.00 0.00 0.00 96 1012.4
20260903014003 80 346 4.0 7.0 0.00 0.00 0.00 91 1012.5
20260903013503 83 11 4.0 6.0 0.00 0.00 0.00 84 1012.9
20260903013002 83 15 2.0 6.0 0.00 0.00 0.00 82 1012.6
20260903012501 85 318 3.0 5.0 0.00 0.00 0.00 80 1012.4
20260903012000 84 102 4.0 7.0 0.00 0.00 0.00 80 1012.1
20260903011455 84 265 2.0 2.0 0.00 0.00 0.00 80 1011.8
20260903010950 84 263 0.0 2.0 0.00 0.00 0.00 80 1011.6
20260903010445 84 74 1.0 3.0 0.00 0.00 0.00 79 1011.8
20260903005943 85 81 0.0 8.0 0.00 0.00 0.00 79 1011.2
20260903005439 85 101 6.0 10.0 0.00 0.00 0.00 77 1011.3
20260903004935 86 74 4.0 9.0 0.00 0.00 0.00 76 1011.2
20260903004429 87 57 3.0 7.0 0.00 0.00 0.00 73 1011.3
20260903003920 88 51 4.0 8.0 0.00 0.00 0.00 71 1010.9
20260903003419 89 75 4.0 7.0 0.00 0.00 0.00 70 1010.5
20260903002914 90 166 0.0 5.0 0.00 0.00 0.00 68 1010.2
20260903002409 92 7 3.0 6.0 0.00 0.00 0.00 63 1010.0
20260903001909 93 102 0.0 3.0 0.00 0.00 0.00 59 1009.7
20260903001404 93 83 1.0 2.0 0.00 0.00 0.00 61 1009.6
20260903000903 93 160 1.0 1.0 0.00 0.00 0.00 61 1009.8
20260903000359 93 160 0.0 2.0 0.00 0.00 0.00 61 1009.7
20260902235857 93 157 0.0 2.0 0.00 0.00 0.00 62 1010.0
20260902235352 93 90 0.0 2.0 0.00 0.00 0.00 62 1009.8
20260902234851 93 74 1.0 1.0 0.00 0.00 0.00 62 1009.9
20260902234346 94 71 2.0 2.0 0.00 0.00 0.00 61 1010.0
20260902233844 95 33 0.0 2.0 0.00 0.00 0.00 61 1009.8
20260902233340 95 151 0.0 3.0 0.00 0.00 0.00 63 1009.8
20260902232838 94 114 1.0 3.0 0.00 0.00 0.00 62 1009.9
20260902232333 94 151 0.0 3.0 0.00 0.00 0.00 64 1009.8
20260902231833 94 126 0.0 5.0 0.00 0.00 0.00 65 1010.0
20260902231327 94 164 0.0 3.0 0.00 0.00 0.00 67 1010.0
20260902230823 93 135 0.0 2.0 0.00 0.00 0.00 69 1010.0
20260902230322 93 90 0.0 5.0 0.00 0.00 0.00 64 1009.9
20260902225816 92 74 2.0 3.0 0.00 0.00 0.00 66 1009.9
20260902225312 92 90 2.0 4.0 0.00 0.00 0.00 66 1009.9
20260902224810 92 81 0.0 2.0 0.00 0.00 0.00 66 1009.8
20260902224305 92 90 0.0 3.0 0.00 0.00 0.00 65 1009.9
20260902223801 93 64 3.0 5.0 0.00 0.00 0.00 65 1009.9
20260902223256 92 64 3.0 3.0 0.00 0.00 0.00 66 1009.9
20260902222754 91 55 2.0 3.0 0.00 0.00 0.00 68 1009.8
20260902222248 90 81 0.0 3.0 0.00 0.00 0.00 69 1009.9
20260902221743 90 63 0.0 3.0 0.00 0.00 0.00 68 1009.8
20260902221242 89 90 1.0 3.0 0.00 0.00 0.00 69 1009.7
20260902220738 89 68 2.0 3.0 0.00 0.00 0.00 69 1009.8
20260902220238 89 48 2.0 3.0 0.00 0.00 0.00 71 1009.9
20260902215733 89 80 4.0 5.0 0.00 0.00 0.00 71 1010.1
20260902215228 89 96 2.0 3.0 0.00 0.00 0.00 72 1010.1
20260902214724 88 71 3.0 3.0 0.00 0.00 0.00 72 1009.8
20260902214223 89 112 3.0 5.0 0.00 0.00 0.00 71 1010.3
20260902213719 90 90 1.0 3.0 0.00 0.00 0.00 68 1010.1
20260902213219 89 90 2.0 6.0 0.00 0.00 0.00 67 1010.2
20260902212718 89 109 4.0 6.0 0.00 0.00 0.00 68 1010.3
20260902212215 89 90 3.0 4.0 0.00 0.00 0.00 77 1010.2